GW5108 Weather Reports


time (UTC)temp
C
wind
direction
speed
KPH
gust
KPH
rain 1hr
cm
rain 24hr
cm
rain mn
cm
humidity
%
barometer
mb
20260510164701 20 275 11.3 27.4 0.00 0.00 0.00 52 1020.1
20260510164158 21 281 9.7 24.1 0.00 0.00 0.00 52 1020.1
20260510163653 21 308 9.7 17.7 0.00 0.00 0.00 52 1020.1
20260510163149 21 317 17.7 24.1 0.00 0.00 0.00 52 1020.2
20260510162644 21 275 14.5 20.9 0.00 0.00 0.00 58 1020.2
20260510162141 20 290 16.1 22.5 0.00 0.00 0.00 55 1020.0
20260510161636 21 315 19.3 22.5 0.00 0.00 0.00 55 1020.0
20260510161133 20 303 14.5 22.5 0.00 0.00 0.00 54 1020.1
20260510160630 20 256 6.4 14.5 0.00 0.00 0.00 55 1020.1
20260510160131 21 295 16.1 22.5 0.00 0.00 0.00 58 1020.1
20260510155627 20 296 6.4 14.5 0.00 0.00 0.00 54 1019.9
20260510155123 20 308 14.5 25.7 0.00 0.00 0.00 54 1020.1
20260510154618 20 289 12.9 17.7 0.00 0.00 0.00 54 1020.2
20260510154114 20 297 14.5 25.7 0.00 0.00 0.00 55 1020.2
20260510153610 20 313 16.1 20.9 0.00 0.00 0.00 56 1020.1
20260510153106 20 307 9.7 16.1 0.00 0.00 0.00 53 1020.2
20260510152603 20 253 11.3 22.5 0.00 0.00 0.00 53 1020.1
20260510152059 20 282 8.0 17.7 0.00 0.00 0.00 53 1020.0
20260510151556 20 301 9.7 17.7 0.00 0.00 0.00 57 1019.9
20260510151054 19 261 17.7 20.9 0.00 0.00 0.00 55 1020.2
20260510150553 20 260 11.3 25.7 0.00 0.00 0.00 55 1020.1
20260510150049 19 301 11.3 20.9 0.00 0.00 0.00 58 1019.9
20260510145546 19 327 14.5 24.1 0.00 0.00 0.00 59 1020.0
20260510145043 19 315 12.9 20.9 0.00 0.00 0.00 56 1020.1
20260510144539 19 304 22.5 25.7 0.00 0.00 0.00 58 1020.0
20260510144036 19 293 9.7 17.7 0.00 0.00 0.00 58 1020.1
20260510143531 19 292 11.3 17.7 0.00 0.00 0.00 59 1019.9
20260510143028 18 273 8.0 12.9 0.00 0.00 0.00 58 1019.8
20260510142524 18 315 4.8 11.3 0.00 0.00 0.00 59 1019.8
20260510142021 18 257 4.8 9.7 0.00 0.00 0.00 61 1019.9
20260510141517 18 285 4.8 14.5 0.00 0.00 0.00 62 1019.9
20260510141015 18 312 4.8 11.3 0.00 0.00 0.00 65 1019.7
20260510140512 18 264 9.7 12.9 0.00 0.00 0.00 61 1019.8
20260510140011 18 275 4.8 12.9 0.00 0.00 0.00 63 1019.9
20260510135507 18 317 9.7 14.5 0.00 0.00 0.00 62 1019.8
20260510135004 18 299 11.3 14.5 0.00 0.00 0.00 64 1019.8
20260510134501 18 307 6.4 14.5 0.00 0.00 0.00 65 1019.9
20260510133958 18 295 4.8 9.7 0.00 0.00 0.00 65 1019.9
20260510133453 17 276 6.4 11.3 0.00 0.00 0.00 66 1020.1
20260510132949 17 289 6.4 11.3 0.00 0.00 0.00 63 1019.8
20260510132447 17 289 11.3 14.5 0.00 0.00 0.00 66 1020.0
20260510131943 17 289 6.4 9.7 0.00 0.00 0.00 71 1019.9
20260510131441 16 298 9.7 16.1 0.00 0.00 0.00 67 1020.0
20260510130938 16 297 9.7 12.9 0.00 0.00 0.00 70 1019.8
20260510130435 16 309 9.7 12.9 0.00 0.00 0.00 71 1019.8
20260510125932 16 296 6.4 12.9 0.00 0.00 0.00 72 1019.6
20260510125427 15 313 8.0 11.3 0.00 0.00 0.00 74 1019.8
20260510124925 15 311 4.8 11.3 0.00 0.00 0.00 74 1019.8
20260510124421 15 304 6.4 11.3 0.00 0.00 0.00 75 1019.8
20260510123918 14 319 6.4 9.7 0.00 0.00 0.00 77 1019.7
20260510123413 14 307 8.0 14.5 0.00 0.00 0.00 79 1019.6
20260510122910 14 323 6.4 12.9 0.00 0.00 0.00 80 1019.6
20260510122359 13 314 9.7 14.5 0.00 0.00 0.00 80 1019.5
20260510121856 13 330 6.4 12.9 0.00 0.00 0.00 79 1019.5
20260510121354 13 299 3.2 11.3 0.00 0.00 0.00 80 1019.5
20260510120851 13 304 6.4 11.3 0.00 0.00 0.00 80 1019.3
20260510120348 13 293 3.2 14.5 0.00 0.00 0.00 80 1019.3
20260510115843 13 311 6.4 11.3 0.00 0.00 0.00 82 1019.3
20260510115341 13 294 3.2 9.7 0.00 0.00 0.00 82 1019.2
20260510114836 13 305 6.4 6.4 0.00 0.00 0.00 82 1019.2
20260510114334 12 324 3.2 11.3 0.00 0.00 0.00 83 1018.9
20260510113833 12 303 6.4 9.7 0.00 0.00 0.00 85 1019.0
20260510113330 12 301 4.8 11.3 0.00 0.00 0.00 86 1019.0
20260510112827 12 289 6.4 9.7 0.00 0.00 0.00 87 1019.2
20260510112324 11 315 3.2 4.8 0.00 0.00 0.00 89 1019.0
20260510111820 11 311 3.2 6.4 0.00 0.00 0.00 90 1019.0
20260510111317 11 315 4.8 4.8 0.00 0.00 0.00 90 1019.0
20260510110816 11 308 3.2 4.8 0.00 0.00 0.00 91 1018.8
20260510110314 10 311 1.6 4.8 0.00 0.00 0.00 92 1018.9
20260510105809 10 310 3.2 4.8 0.00 0.00 0.00 93 1018.7
20260510105306 10 316 3.2 4.8 0.00 0.00 0.00 94 1018.6
20260510104801 10 303 4.8 4.8 0.00 0.00 0.00 94 1018.4
20260510104259 10 312 6.4 9.7 0.00 0.00 0.00 94 1018.4
20260510103754 10 305 4.8 4.8 0.00 0.00 0.00 94 1018.3
20260510103252 10 313 4.8 4.8 0.00 0.00 0.00 94 1018.3
20260510102751 10 304 3.2 4.8 0.00 0.00 0.00 94 1018.2
20260510102247 9 306 3.2 6.4 0.00 0.00 0.00 93 1018.1
20260510101745 10 310 4.8 6.4 0.00 0.00 0.00 93 1018.0
20260510101244 10 309 4.8 4.8 0.00 0.00 0.00 92 1018.0
20260510100739 10 314 4.8 4.8 0.00 0.00 0.00 92 1018.1
20260510100238 10 296 4.8 6.4 0.00 0.00 0.00 92 1017.9
20260510095732 10 308 3.2 3.2 0.00 0.00 0.00 91 1017.7
20260510095228 10 311 3.2 4.8 0.00 0.00 0.00 91 1017.9
20260510094727 10 276 3.2 6.4 0.00 0.00 0.00 91 1017.7
20260510094222 10 291 1.6 3.2 0.00 0.00 0.00 92 1017.9
20260510093718 10 295 3.2 4.8 0.00 0.00 0.00 92 1017.6
20260510093216 11 308 1.6 4.8 0.00 0.00 0.00 91 1017.9
20260510092712 10 286 3.2 4.8 0.00 0.00 0.00 92 1017.7
20260510092208 10 307 3.2 4.8 0.00 0.00 0.00 92 1017.6
20260510091704 10 303 4.8 6.4 0.00 0.00 0.00 92 1017.6
20260510091200 10 298 3.2 4.8 0.00 0.00 0.00 92 1017.3
20260510090657 10 297 3.2 4.8 0.00 0.00 0.00 92 1017.4
20260510090154 10 289 3.2 3.2 0.00 0.00 0.00 93 1017.2
20260510085649 10 295 1.6 3.2 0.00 0.00 0.00 94 1017.4
20260510085144 10 291 0.0 1.6 0.00 0.00 0.00 93 1017.2
20260510084641 10 282 0.0 0.0 0.00 0.00 0.00 93 1017.3
20260510084137 10 282 0.0 1.6 0.00 0.00 0.00 93 1017.2
20260510083634 10 283 3.2 3.2 0.00 0.00 0.00 94 1017.1
20260510083131 10 287 3.2 3.2 0.00 0.00 0.00 93 1017.1
20260510082627 10 282 1.6 3.2 0.00 0.00 0.00 93 1017.2
20260510082123 10 285 3.2 4.8 0.00 0.00 0.00 93 1017.2
20260510081617 10 307 3.2 6.4 0.00 0.00 0.00 93 1017.1
20260510081113 10 305 4.8 6.4 0.00 0.00 0.00 93 1017.2
20260510080608 10 286 3.2 6.4 0.00 0.00 0.00 92 1017.0
20260510080105 10 301 4.8 6.4 0.00 0.00 0.00 92 1017.0
20260510075601 10 311 6.4 9.7 0.00 0.00 0.00 93 1017.0
20260510075058 10 307 4.8 6.4 0.00 0.00 0.00 93 1017.0
20260510074556 10 279 3.2 3.2 0.00 0.00 0.00 92 1016.9
20260510074051 11 296 3.2 4.8 0.00 0.00 0.00 91 1017.0
20260510073547 10 286 3.2 4.8 0.00 0.00 0.00 92 1016.7
20260510073044 11 296 4.8 6.4 0.00 0.00 0.00 91 1016.9
20260510072541 11 308 3.2 4.8 0.00 0.00 0.00 91 1017.0
20260510072036 11 298 4.8 6.4 0.00 0.00 0.00 91 1016.8
20260510071533 11 275 3.2 4.8 0.00 0.00 0.00 91 1016.8
20260510071031 11 297 6.4 6.4 0.00 0.00 0.00 92 1016.9
20260510070528 10 278 1.6 3.2 0.00 0.00 0.00 92 1017.0
20260510070025 11 277 1.6 4.8 0.00 0.00 0.00 91 1016.9
20260510065521 11 266 0.0 4.8 0.00 0.00 0.00 91 1016.7
20260510065017 10 230 3.2 9.7 0.00 0.00 0.00 93 1016.8
20260510064514 10 285 0.0 1.6 0.00 0.00 0.00 92 1017.0
20260510064011 10 275 1.6 6.4 0.00 0.00 0.00 91 1016.8
20260510063507 10 310 4.8 6.4 0.00 0.00 0.00 93 1016.8
20260510063005 10 289 3.2 4.8 0.00 0.00 0.00 94 1016.9
20260510062500 10 292 3.2 3.2 0.00 0.00 0.00 94 1016.7
20260510061955 10 293 3.2 4.8 0.00 0.00 0.00 96 1016.7
20260510061452 9 298 3.2 3.2 0.00 0.00 0.00 97 1016.7
20260510060948 9 292 0.0 0.0 0.00 0.00 0.00 98 1016.6
20260510060446 9 301 0.0 0.0 0.00 0.00 0.00 98 1016.7
20260510055942 9 301 0.0 0.0 0.00 0.00 0.00 98 1016.7
20260510055438 8 301 0.0 0.0 0.00 0.00 0.00 98 1016.7
20260510054936 8 301 0.0 0.0 0.00 0.00 0.00 98 1016.9
20260510054431 8 318 0.0 0.0 0.00 0.00 0.00 97 1016.8
20260510053926 8 318 0.0 0.0 0.00 0.00 0.00 98 1017.0
20260510053422 8 317 0.0 0.0 0.00 0.00 0.00 98 1016.9
20260510052918 8 318 0.0 0.0 0.00 0.00 0.00 97 1016.9
20260510052414 8 318 0.0 0.0 0.00 0.00 0.00 97 1017.0
20260510051911 8 318 0.0 0.0 0.00 0.00 0.00 97 1016.9
20260510051408 8 318 0.0 0.0 0.00 0.00 0.00 97 1017.0
20260510050904 8 318 0.0 0.0 0.00 0.00 0.00 96 1017.0
20260510050400 8 318 0.0 0.0 0.00 0.00 0.00 97 1016.9
20260510045857 8 317 0.0 0.0 0.00 0.00 0.00 96 1016.8
20260510045354 8 317 0.0 0.0 0.00 0.00 0.00 96 1016.9
20260510044851 8 317 0.0 0.0 0.00 0.00 0.00 95 1016.9
20260510044348 8 317 0.0 0.0 0.00 0.00 0.00 95 1016.8
20260510043844 8 317 0.0 0.0 0.00 0.00 0.00 94 1016.8
20260510043341 9 317 0.0 0.0 0.00 0.00 0.00 94 1016.9
20260510042839 8 315 0.0 0.0 0.00 0.00 0.00 95 1017.0
20260510042334 8 315 0.0 0.0 0.00 0.00 0.00 94 1016.9
20260510041831 9 315 0.0 0.0 0.00 0.00 0.00 93 1016.8
20260510041328 9 315 0.0 0.0 0.00 0.00 0.00 93 1016.8
20260510040826 9 317 0.0 0.0 0.00 0.00 0.00 92 1016.7
20260510040322 9 317 0.0 0.0 0.00 0.00 0.00 93 1016.9
20260510035818 9 301 0.0 0.0 0.00 0.00 0.00 92 1016.7
20260510035314 9 301 0.0 0.0 0.00 0.00 0.00 92 1016.9
20260510034810 9 301 0.0 0.0 0.00 0.00 0.00 92 1016.9
20260510034307 9 301 0.0 0.0 0.00 0.00 0.00 92 1016.8
20260510033804 9 301 0.0 0.0 0.00 0.00 0.00 91 1016.7
20260510033301 9 301 0.0 0.0 0.00 0.00 0.00 90 1016.8
20260510032758 10 301 0.0 0.0 0.00 0.00 0.00 87 1016.6
20260510032254 10 301 0.0 0.0 0.00 0.00 0.00 87 1016.8
20260510031750 10 301 0.0 0.0 0.00 0.00 0.00 87 1016.7
20260510031245 10 301 0.0 0.0 0.00 0.00 0.00 87 1016.8
20260510030744 10 301 0.0 0.0 0.00 0.00 0.00 87 1016.9
20260510030242 10 301 0.0 1.6 0.00 0.00 0.00 85 1016.8
20260510025739 10 301 0.0 0.0 0.00 0.00 0.00 86 1016.9
20260510025237 10 301 0.0 0.0 0.00 0.00 0.00 88 1016.8
20260510024734 10 301 0.0 0.0 0.00 0.00 0.00 87 1016.7
20260510024230 10 301 0.0 0.0 0.00 0.00 0.00 87 1016.7
20260510023726 10 301 0.0 0.0 0.00 0.00 0.00 88 1016.7
20260510023223 9 284 4.8 4.8 0.00 0.00 0.00 90 1016.7
20260510022719 9 273 0.0 0.0 0.00 0.00 0.00 89 1016.5
20260510022214 9 273 0.0 0.0 0.00 0.00 0.00 89 1016.5
20260510021709 9 273 0.0 0.0 0.00 0.00 0.00 89 1016.6
20260510021206 9 273 0.0 0.0 0.00 0.00 0.00 88 1016.3
20260510020701 10 273 0.0 0.0 0.00 0.00 0.00 88 1016.5
20260510020156 10 273 0.0 0.0 0.00 0.00 0.00 88 1016.3
20260510015653 10 273 0.0 0.0 0.00 0.00 0.00 87 1016.2
20260510015150 10 273 0.0 0.0 0.00 0.00 0.00 88 1016.0
20260510014649 9 273 0.0 0.0 0.00 0.00 0.00 88 1016.0
20260510014147 10 273 0.0 0.0 0.00 0.00 0.00 87 1015.9
20260510013642 10 273 0.0 0.0 0.00 0.00 0.00 86 1015.8
20260510013138 10 273 0.0 0.0 0.00 0.00 0.00 85 1015.6
20260510012638 10 273 0.0 0.0 0.00 0.00 0.00 84 1015.6
20260510012134 10 273 0.0 0.0 0.00 0.00 0.00 84 1015.7
20260510011634 11 273 0.0 0.0 0.00 0.00 0.00 83 1015.7
20260510011130 10 273 0.0 0.0 0.00 0.00 0.00 84 1015.4
20260510010626 11 273 0.0 0.0 0.00 0.00 0.00 81 1015.5
20260510010124 11 273 0.0 0.0 0.00 0.00 0.00 81 1015.4
20260510005619 12 273 0.0 0.0 0.00 0.00 0.00 79 1015.6
20260510005117 11 273 0.0 0.0 0.00 0.00 0.00 81 1015.4
20260510004615 12 273 0.0 0.0 0.00 0.00 0.00 78 1015.2
20260510004113 12 273 0.0 0.0 0.00 0.00 0.00 77 1015.2
20260510003609 13 273 0.0 0.0 0.00 0.00 0.00 75 1015.2
20260510003105 13 273 0.0 0.0 0.00 0.00 0.00 72 1015.3
20260510002600 14 273 0.0 1.6 0.00 0.00 0.00 71 1015.2
20260510002057 14 273 0.0 0.0 0.00 0.00 0.00 70 1015.3
20260510001555 15 273 1.6 1.6 0.00 0.00 0.00 67 1015.2
20260510001054 16 273 0.0 0.0 0.00 0.00 0.00 65 1015.1
20260510000553 16 276 1.6 3.2 0.00 0.00 0.00 62 1014.9
20260510000050 16 275 1.6 3.2 0.00 0.00 0.00 61 1014.7
20260509235547 17 292 3.2 9.7 0.00 0.00 0.00 61 1014.5
20260509235044 17 279 0.0 0.0 0.00 0.00 0.00 60 1014.4
20260509234540 17 279 0.0 1.6 0.00 0.00 0.00 60 1014.4
20260509234038 17 281 4.8 4.8 0.00 0.00 0.00 59 1014.4
20260509233535 17 276 3.2 6.4 0.00 0.00 0.00 61 1014.6
20260509233032 17 296 8.0 9.7 0.00 0.00 0.00 59 1014.3
20260509232529 17 294 3.2 9.7 0.00 0.00 0.00 60 1014.4
20260509232025 17 276 3.2 3.2 0.00 0.00 0.00 60 1014.4
20260509231522 16 264 3.2 4.8 0.00 0.00 0.00 62 1014.4
20260509231020 17 287 8.0 11.3 0.00 0.00 0.00 59 1014.4
20260509230517 17 288 9.7 12.9 0.00 0.00 0.00 59 1014.2
20260509230013 17 292 3.2 4.8 0.00 0.00 0.00 57 1014.4
20260509225509 17 284 3.2 4.8 0.00 0.00 0.00 59 1014.3
20260509225005 17 292 3.2 11.3 0.00 0.00 0.00 60 1014.2
20260509224500 17 299 6.4 11.3 0.00 0.00 0.00 58 1014.4
20260509223957 17 297 4.8 14.5 0.00 0.00 0.00 56 1014.5
20260509223454 18 307 4.8 11.3 0.00 0.00 0.00 56 1014.6
20260509222952 18 272 3.2 9.7 0.00 0.00 0.00 54 1014.5
20260509222447 18 297 8.0 17.7 0.00 0.00 0.00 55 1014.6
20260509221943 18 312 8.0 12.9 0.00 0.00 0.00 54 1014.6
20260509221440 18 286 6.4 16.1 0.00 0.00 0.00 55 1014.5
20260509220935 18 306 9.7 12.9 0.00 0.00 0.00 53 1014.7
20260509220431 17 248 4.8 14.5 0.00 0.00 0.00 55 1014.5
20260509215928 18 278 3.2 14.5 0.00 0.00 0.00 58 1014.6
20260509215423 18 289 11.3 14.5 0.00 0.00 0.00 54 1014.6
20260509214921 18 279 12.9 14.5 0.00 0.00 0.00 53 1014.5
20260509214418 18 309 11.3 12.9 0.00 0.00 0.00 55 1014.6
20260509213915 18 307 8.0 11.3 0.00 0.00 0.00 55 1014.7
20260509213416 18 299 4.8 4.8 0.00 0.00 0.00 55 1014.5
20260509212914 18 275 9.7 14.5 0.00 0.00 0.00 54 1014.4
20260509212411 18 283 8.0 16.1 0.00 0.00 0.00 55 1014.3
20260509211907 18 311 9.7 20.9 0.00 0.00 0.00 54 1014.3
20260509211403 17 284 11.3 12.9 0.00 0.00 0.00 53 1014.2
20260509210859 17 303 8.0 17.7 0.00 0.00 0.00 54 1014.5
20260509210357 17 293 17.7 22.5 0.00 0.00 0.00 53 1014.3
20260509205852 18 298 4.8 6.4 0.00 0.00 0.00 55 1014.3
20260509205346 18 295 6.4 11.3 0.00 0.00 0.00 54 1014.1
20260509204844 18 289 11.3 14.5 0.00 0.00 0.00 52 1014.2
20260509204340 18 293 3.2 16.1 0.00 0.00 0.00 52 1014.1
20260509203836 18 315 9.7 17.7 0.00 0.00 0.00 53 1014.1
20260509203333 18 297 17.7 29.0 0.00 0.00 0.00 53 1013.9
20260509202829 18 277 6.4 14.5 0.00 0.00 0.00 53 1014.0
20260509202326 18 317 4.8 6.4 0.00 0.00 0.00 54 1013.8
20260509201825 18 317 4.8 6.4 0.00 0.00 0.00 54 1013.8
20260509201322 18 254 8.0 16.1 0.00 0.00 0.00 54 1013.8
20260509200818 17 315 6.4 9.7 0.00 0.00 0.00 54 1013.5
20260509200314 17 287 11.3 17.7 0.00 0.00 0.00 52 1013.9
20260509195810 18 297 9.7 14.5 0.00 0.00 0.00 54 1013.7
20260509195306 18 292 9.7 14.5 0.00 0.00 0.00 52 1013.7
20260509194805 18 321 8.0 12.9 0.00 0.00 0.00 54 1013.7
20260509194301 18 294 17.7 25.7 0.00 0.00 0.00 51 1013.7
20260509193758 18 320 12.9 20.9 0.00 0.00 0.00 52 1013.5
20260509193258 18 253 4.8 12.9 0.00 0.00 0.00 54 1013.8
20260509192754 19 163 3.2 12.9 0.00 0.00 0.00 47 1013.5
20260509192250 19 284 9.7 16.1 0.00 0.00 0.00 47 1013.9
20260509191745 18 316 12.9 17.7 0.00 0.00 0.00 53 1013.7
20260509191242 18 277 12.9 16.1 0.00 0.00 0.00 50 1013.5
20260509190738 18 315 14.5 25.7 0.00 0.00 0.00 49 1013.4
20260509190235 18 297 12.9 16.1 0.00 0.00 0.00 49 1013.7
20260509185732 18 312 8.0 12.9 0.00 0.00 0.00 51 1013.4
20260509185228 18 263 3.2 11.3 0.00 0.00 0.00 48 1013.8
20260509184726 18 290 9.7 14.5 0.00 0.00 0.00 47 1013.5
20260509184224 18 293 9.7 20.9 0.00 0.00 0.00 51 1013.7
20260509183720 19 303 14.5 17.7 0.00 0.00 0.00 47 1013.7
20260509183215 20 278 11.3 14.5 0.00 0.00 0.00 44 1013.8
20260509182711 20 309 4.8 14.5 0.00 0.00 0.00 47 1013.5
20260509182208 19 280 9.7 22.5 0.00 0.00 0.00 50 1013.4
20260509181706 19 225 6.4 14.5 0.00 0.00 0.00 46 1013.5
20260509181203 18 279 9.7 16.1 0.00 0.00 0.00 51 1013.7
20260509180700 18 303 6.4 11.3 0.00 0.00 0.00 52 1013.4
20260509180156 19 160 4.8 6.4 0.00 0.00 0.00 47 1013.5
20260509175652 18 242 3.2 4.8 0.00 0.00 0.00 50 1013.5
20260509175149 18 282 3.2 12.9 0.00 0.00 0.00 52 1013.7
20260509174645 18 270 6.4 12.9 0.00 0.00 0.00 50 1013.8
20260509174139 17 292 11.3 17.7 0.00 0.00 0.00 51 1013.9
20260509173636 18 311 9.7 17.7 0.00 0.00 0.00 49 1013.8
20260509173131 18 242 0.0 4.8 0.00 0.00 0.00 52 1013.8
20260509172628 18 257 9.7 14.5 0.00 0.00 0.00 48 1013.5
20260509172124 18 240 8.0 14.5 0.00 0.00 0.00 49 1013.8
20260509171620 18 291 6.4 16.1 0.00 0.00 0.00 49 1014.0
20260509171117 17 295 8.0 20.9 0.00 0.00 0.00 51 1014.0
20260509170613 18 130 1.6 9.7 0.00 0.00 0.00 50 1014.2
20260509170109 18 230 9.7 25.7 0.00 0.00 0.00 51 1014.3
20260509165608 18 289 6.4 11.3 0.00 0.00 0.00 49 1014.1
20260509165103 19 249 16.1 17.7 0.00 0.00 0.00 51 1014.1